Showing default

FLOCK 4BE 33, 60502

Orbit data source: Space-Track

FLOCK 4BE 33, 60502 is a payload satellite owned by Planet (US) in SSO that was launched on Fri, 16 Aug 2024 UTC via an FALCON 9 launch vehicle from the Air Force Western Test Range (AFWTR). Payload-class satellites include a variety of spacecraft equipped with specific instruments for various scientific and technological missions. These include communications satellites like Starlink; space stations such as the ISS; scientific satellites like the Hubble; Earth observation satellites from companies like Planet Labs, Umbra, and HawkEye 360; GPS; miniature CubeSats for education and research; and military/defense satellites.

Loading next visibility...
Identifier
60502, 2024-149AL
Orbit
SSO
Country
Flag of USUS
Related business
Manufacturer
Planet
Mission
Operational Commercial Imaging
Bus & Motor
CUBESAT 3U, Unknown motor
Mass
5.7 kg wet, 5.7 kg dry
Launch date (UTC)
2024-08-16 (1 year ago)
Launch vehicle
FALCON 9
Launch site
Air Force Western Test Range (AFWTR)
Object type
Payload
Rocket body
Debris
Shape & HBR
Box + 2 Pan, 1.0 m
Radar Cross Section
0.072 m², Medium (>0.1 m² and < 1m²)

Expand to show TLE details & history
Last TLE update: 10 hours ago

TLE from 10 hours ago
0 FLOCK 4BE 33
1 60502U 24149AL  25352.76719143  .00066967  00000-0  16360-2 0  9990
2 60502  97.3879  70.2064 0005707 220.8313 139.2506 15.40578540 74562
Epoch: 2025-12-18T18:24Z
TLE epoch observation values (Epoch: 2025-12-18T18:24:45.339Z)
Latitude
-0.00006°
Longitude
66.39952°
Altitude
450.471 km
Speed
7.64 km/s
True Right ascension
04h 40m 49s
True Declination
0° 00' 00"
Sunlit
Object was in full shadow at epoch
Visualization orbit readout
Latitude
Unknown
Longitude
Unknown
Altitude
Unknown
Speed
Unknown
Apparent Right ascension
Unknown
Apparent Declination
Unknown
Sunlit
N/A
Visualization observer readout
Local Sidereal Time
03:41:25
Azimuth
Unknown
Elevation
Unknown
Doppler factor
Unknown
Orbital elements
Apogee altitude
445.23 km
Perigee altitude
437.447 km
Semi-major axis
6,819.475 km
Eccentricity
0.00057
Inclination
97.3879°
RAAN
70.2064°
Arg. of periapsis
220.8313°
True anomaly
139.29327°
Mean anomaly
139.2506°
Eccentric anomaly
139.27193°
Mean motion
3.85404 °/min
Orbital period
93.41 mins
BSTAR
0.001636
Loading maneuver chart data...
Computing Atmospheric mass density...
Loading historical data...
Loading historical data...
Loading historical data...
Loading historical data...
Loading historical data...
Loading historical data...
Loading historical data...

Documentation

Showing up to 5 results
|